Location: Newark
(13.0328°N, 9.6142°E)
Time: 16:45:20
(UTC+00:00)

OTV 5 (USA 277) - Pass Details

Date: 24 October 2019
Orbit: 310 x 324 km, 54.5° (Epoch: 17 October)

Event Time Altitude Azimuth Distance (km) Brightness Sun altitude
Exits shadow 04:33:52 - 328° (NNW) 1,359 ? -10.3°
Reaches altitude 10° 04:34:13 10° 329° (NNW) 1,219 ? -10.2°
Maximum altitude 04:36:54 80° 55° (NE) 325 ? -9.5°
Drops below altitude 10° 04:39:35 10° 144° (SE) 1,211 ? -8.9°
Sets 04:41:33 0° 145° (SE) 2,037 ? -8.4°
